Alva, OK

2:46 AM CST on February 21, 2017 (GMT -0600)
Alva Regional

Weather History for KAVK - June, 2013

Change the Weather History Date:

Friday, June 21, 2013

  Actual Average Record
Temperature  
Mean Temperature 84 °F -  
Max Temperature 98 °F 92 °F 109 °F (1953)
Min Temperature 71 °F 66 °F 53 °F (1961)
Cooling Degree Days 20    
Growing Degree Days 34 (Base 50)    
Moisture  
Dew Point 66 °F    
Average Humidity 55    
Maximum Humidity 83    
Minimum Humidity 29    
Precipitation  
Precipitation 0.00 in - - ()
Sea Level Pressure  
Sea Level Pressure 29.90 in    
Wind  
Wind Speed 17 mph (South)    
Max Wind Speed 31 mph    
Max Gust Speed 44 mph    
Visibility 10 miles    
Events      
Averages and records for this station are not official NWS values.
T = Trace of Precipitation, MM = Missing Value Source: NWS Daily Summary

Daily Weather History Graph

Daily Weather History Graph

Search for Another Location

Airport or City:

Trip Planner

Search our weather history database for the weather conditions in past years. The results will help you decide how hot, cold, wet, or windy it might be!

Date:

Astronomy

Jun. 21, 2013 Rise Set
Actual Time 6:16 AM CDT 8:57 PM CDT
Civil Twilight 5:45 AM CDT 9:27 PM CDT
Nautical Twilight 5:07 AM CDT 10:06 PM CDT
Astronomical Twilight 4:24 AM CDT 10:49 PM CDT
Moon 7:10 PM CDT 4:30 AM CDT
Length of Visible Light 15h 42m
Length of Day
14h 40m
Waxing Gibbous, 95% of the Moon is Illuminated
Jun 21
Waxing Gibbous
Jun 23
Full
Jun 29
Last Quarter
Jul 8
New
Jul 15
First Quarter

Hourly Weather History & Observations

Time (CDT) Temp. Heat Index Dew Point Humidity Pressure Visibility Wind Dir Wind Speed Gust Speed Precip Events Conditions
12:05 AM 80.6 °F 83.2 °F 68.0 °F 65% 29.89 in 10.0 mi South 17.3 mph - N/A   Clear
12:25 AM 78.8 °F - 68.0 °F 69% 29.90 in 10.0 mi SSE 13.8 mph - N/A   Clear
12:45 AM 78.8 °F - 68.0 °F 69% 29.89 in 10.0 mi SSE 13.8 mph - N/A   Clear
1:05 AM 77.0 °F - 68.0 °F 74% 29.89 in 10.0 mi SSE 13.8 mph - N/A   Clear
1:25 AM 77.0 °F - 68.0 °F 74% 29.89 in 10.0 mi SSE 13.8 mph - N/A   Clear
1:45 AM 77.0 °F - 68.0 °F 74% 29.88 in 10.0 mi SSE 13.8 mph - N/A   Clear
2:05 AM 77.0 °F - 68.0 °F 74% 29.87 in 10.0 mi SSE 12.7 mph - N/A   Clear
2:25 AM 77.0 °F - 68.0 °F 74% 29.87 in 10.0 mi SSE 12.7 mph - N/A   Clear
2:45 AM 77.0 °F - 66.2 °F 69% 29.87 in 10.0 mi SSE 12.7 mph - N/A   Clear
3:05 AM 77.0 °F - 66.2 °F 69% 29.88 in 10.0 mi South 10.4 mph - N/A   Clear
3:25 AM 75.2 °F - 66.2 °F 73% 29.88 in 10.0 mi South 10.4 mph - N/A   Partly Cloudy
3:45 AM 75.2 °F - 66.2 °F 73% 29.89 in 10.0 mi SSE 6.9 mph - N/A   Partly Cloudy
4:05 AM 73.4 °F - 66.2 °F 78% 29.89 in 10.0 mi SSE 5.8 mph - N/A   Clear
4:25 AM 73.4 °F - 66.2 °F 78% 29.90 in 10.0 mi South 5.8 mph - N/A   Clear
4:45 AM 73.4 °F - 66.2 °F 78% 29.91 in 10.0 mi South 8.1 mph - N/A   Clear
5:05 AM 73.4 °F - 66.2 °F 78% 29.91 in 10.0 mi South 8.1 mph - N/A   Clear
5:25 AM 73.4 °F - 66.2 °F 78% 29.92 in 10.0 mi South 9.2 mph - N/A   Clear
5:45 AM 71.6 °F - 66.2 °F 83% 29.92 in 10.0 mi South 8.1 mph - N/A   Clear
6:05 AM 73.4 °F - 66.2 °F 78% 29.92 in 10.0 mi South 8.1 mph - N/A   Clear
6:25 AM 73.4 °F - 66.2 °F 78% 29.93 in 10.0 mi South 10.4 mph - N/A   Clear
6:45 AM 73.4 °F - 66.2 °F 78% 29.93 in 10.0 mi South 10.4 mph - N/A   Clear
7:05 AM 75.2 °F - 66.2 °F 73% 29.93 in 9.0 mi South 11.5 mph - N/A   Clear
7:25 AM 75.2 °F - 66.2 °F 73% 29.93 in 9.0 mi South 12.7 mph - N/A   Clear
7:45 AM 77.0 °F - 66.2 °F 69% 29.93 in 10.0 mi South 11.5 mph - N/A   Clear
8:05 AM 80.6 °F 82.7 °F 66.2 °F 61% 29.94 in 9.0 mi South 18.4 mph 23.0 mph N/A   Clear
8:25 AM 80.6 °F 82.7 °F 66.2 °F 61% 29.94 in 10.0 mi South 16.1 mph 21.9 mph N/A   Clear
8:45 AM 82.4 °F 84.6 °F 66.2 °F 58% 29.95 in 10.0 mi SSW 17.3 mph 26.5 mph N/A   Clear
9:05 AM 84.2 °F 86.6 °F 66.2 °F 55% 29.95 in 9.0 mi SSW 17.3 mph 27.6 mph N/A   Clear
9:25 AM 86.0 °F 88.2 °F 66.2 °F 51% 29.95 in 10.0 mi SSW 26.5 mph 33.4 mph N/A   Clear
9:45 AM 86.0 °F 88.2 °F 66.2 °F 51% 29.95 in 10.0 mi SSW 23.0 mph 29.9 mph N/A   Clear
10:05 AM 87.8 °F 90.4 °F 66.2 °F 49% 29.95 in 9.0 mi SSW 24.2 mph 28.8 mph N/A   Clear
10:25 AM 89.6 °F 92.2 °F 66.2 °F 46% 29.94 in 10.0 mi SSW 25.3 mph 33.4 mph N/A   Clear
10:45 AM 89.6 °F 92.2 °F 66.2 °F 46% 29.94 in 10.0 mi SSW 24.2 mph 31.1 mph N/A   Clear
11:05 AM 89.6 °F 92.2 °F 66.2 °F 46% 29.94 in 9.0 mi SSW 24.2 mph 32.2 mph N/A   Clear
11:25 AM 91.4 °F 94.0 °F 66.2 °F 43% 29.94 in 10.0 mi SSW 23.0 mph 33.4 mph N/A   Clear
11:45 AM 91.4 °F 94.0 °F 66.2 °F 43% 29.95 in 9.0 mi SSW 21.9 mph 31.1 mph N/A   Clear
12:05 PM 93.2 °F 96.2 °F 66.2 °F 41% 29.95 in 9.0 mi South 21.9 mph 26.5 mph N/A   Clear
12:25 PM 93.2 °F 96.2 °F 66.2 °F 41% 29.94 in 10.0 mi SSW 24.2 mph 31.1 mph N/A   Clear
12:45 PM 93.2 °F 96.2 °F 66.2 °F 41% 29.94 in 10.0 mi SSW 25.3 mph 33.4 mph N/A   Clear
1:05 PM 95.0 °F 98.5 °F 66.2 °F 39% 29.93 in 10.0 mi SSW 25.3 mph 29.9 mph N/A   Clear
1:25 PM 95.0 °F 98.5 °F 66.2 °F 39% 29.92 in 9.0 mi SSW 21.9 mph 32.2 mph N/A   Clear
1:45 PM 96.8 °F 98.0 °F 62.6 °F 32% 29.92 in 10.0 mi SSW 24.2 mph 33.4 mph N/A   Clear
2:05 PM 98.6 °F 101.0 °F 64.4 °F 32% 29.90 in 10.0 mi South 31.1 mph 39.1 mph N/A   Clear
2:25 PM 98.6 °F 99.4 °F 60.8 °F 29% 29.89 in 10.0 mi SSW 24.2 mph 38.0 mph N/A   Clear
2:45 PM 95.0 °F 96.0 °F 62.6 °F 34% 29.88 in 10.0 mi South 26.5 mph 40.3 mph N/A   Clear
3:05 PM 98.6 °F 99.4 °F 60.8 °F 29% 29.87 in 10.0 mi SSW 26.5 mph 39.1 mph N/A   Clear
3:25 PM 95.0 °F 96.0 °F 62.6 °F 34% 29.87 in 10.0 mi South 27.6 mph 39.1 mph N/A   Clear
3:45 PM 98.6 °F 100.0 °F 62.6 °F 30% 29.86 in 10.0 mi South 31.1 mph 43.7 mph N/A   Clear
4:05 PM 93.2 °F 94.1 °F 62.6 °F 36% 29.86 in 10.0 mi South 29.9 mph 43.7 mph N/A   Clear
4:25 PM 95.0 °F 96.0 °F 62.6 °F 34% 29.86 in 10.0 mi South 31.1 mph 40.3 mph N/A   Clear
4:45 PM 93.2 °F 94.1 °F 62.6 °F 36% 29.87 in 10.0 mi South 21.9 mph 35.7 mph N/A   Clear
5:05 PM 93.2 °F 94.9 °F 64.4 °F 38% 29.86 in 10.0 mi South 26.5 mph 38.0 mph N/A   Clear
5:25 PM 93.2 °F 94.9 °F 64.4 °F 38% 29.86 in 10.0 mi South 24.2 mph 34.5 mph N/A   Clear
5:45 PM 95.0 °F 97.0 °F 64.4 °F 36% 29.86 in 9.0 mi South 27.6 mph 33.4 mph N/A   Clear
6:05 PM 93.2 °F 94.9 °F 64.4 °F 38% 29.86 in 10.0 mi South 24.2 mph 35.7 mph N/A   Clear
6:25 PM 93.2 °F 96.2 °F 66.2 °F 41% 29.86 in 10.0 mi South 24.2 mph 35.7 mph N/A   Clear
6:45 PM 93.2 °F 96.2 °F 66.2 °F 41% 29.85 in 10.0 mi South 24.2 mph 35.7 mph N/A   Clear
7:05 PM 91.4 °F 94.0 °F 66.2 °F 43% 29.85 in 10.0 mi South 26.5 mph 34.5 mph N/A   Clear
7:25 PM 91.4 °F 94.0 °F 66.2 °F 43% 29.85 in 10.0 mi South 24.2 mph 33.4 mph N/A   Clear
7:45 PM 89.6 °F 92.2 °F 66.2 °F 46% 29.85 in 10.0 mi South 23.0 mph 33.4 mph N/A   Clear
8:05 PM 89.6 °F 93.4 °F 68.0 °F 49% 29.85 in 10.0 mi South 23.0 mph 33.4 mph N/A   Clear
8:25 PM 86.0 °F 90.4 °F 69.8 °F 58% 29.85 in 9.0 mi South 19.6 mph 28.8 mph N/A   Clear
8:45 PM 86.0 °F 89.4 °F 68.0 °F 55% 29.85 in 10.0 mi South 20.7 mph 29.9 mph N/A   Clear
9:05 PM 86.0 °F 89.4 °F 68.0 °F 55% 29.86 in 10.0 mi South 21.9 mph 35.7 mph N/A   Clear
9:25 PM 84.2 °F 87.3 °F 68.0 °F 58% 29.87 in 10.0 mi South 21.9 mph 28.8 mph N/A   Clear
9:45 PM 84.2 °F 86.6 °F 66.2 °F 55% 29.88 in 10.0 mi SSE 21.9 mph 27.6 mph N/A   Partly Cloudy
10:05 PM 82.4 °F 84.6 °F 66.2 °F 58% 29.89 in 10.0 mi South 20.7 mph 31.1 mph N/A   Clear
10:25 PM 82.4 °F 84.6 °F 66.2 °F 58% 29.89 in 10.0 mi South 19.6 mph 28.8 mph N/A   Clear
10:45 PM 82.4 °F 84.6 °F 66.2 °F 58% 29.89 in 10.0 mi South 19.6 mph 26.5 mph N/A   Clear
11:05 PM 80.6 °F 82.7 °F 66.2 °F 61% 29.90 in 10.0 mi South 16.1 mph - N/A   Clear
11:25 PM 80.6 °F 82.7 °F 66.2 °F 61% 29.90 in 10.0 mi South 17.3 mph 25.3 mph N/A   Clear
11:45 PM 80.6 °F 82.7 °F 66.2 °F 61% 29.90 in 10.0 mi South 16.1 mph 20.7 mph N/A   Clear